Location: �bnet
(46.9957°N, 8.4908°E)
Time: 00:24:54
(UTC+00:00)

Spot 2 Rocket - Pass Details

Date: 11 May 2021
Orbit: 757 x 771 km, 98.5° (Epoch: 18 June)

Event Time Altitude Azimuth Distance (km) Brightness Sun altitude
Exits shadow 20:22:05 19° 149° (SSE) 1,766 4.8 -13.3°
Maximum altitude 20:25:43 64° 72° (ENE) 841 3.6 -13.8°
Drops below altitude 10° 20:30:43 10° 351° (N) 2,299 6.9 -14.3°
Sets 20:33:02 0° 349° (N) 3,229 7.8 -14.6°
